TimeCST,TemperatureF,Dew PointF,Humidity,Sea Level PressureIn,VisibilityMPH,Wind Direction,Wind SpeedMPH,Gust SpeedMPH,PrecipitationIn,Events,Conditions,WindDirDegrees,DateUTC
12:53 AM,46.0,37.0,71,30.01,10.0,SSE,11.5,23.0,N/A,,Overcast,150,2013-03-09 06:53:00
1:53 AM,45.0,37.9,76,30.00,10.0,SSE,11.5,20.7,N/A,,Overcast,160,2013-03-09 07:53:00
2:53 AM,45.0,39.0,80,29.96,8.0,South,11.5,-,N/A,,Overcast,170,2013-03-09 08:53:00
3:11 AM,44.6,39.2,81,29.94,8.0,SSE,10.4,-,N/A,,Overcast,160,2013-03-09 09:11:00
3:53 AM,45.0,39.0,80,29.93,9.0,SSE,11.5,18.4,N/A,,Overcast,160,2013-03-09 09:53:00
4:53 AM,44.1,39.0,82,29.91,9.0,SSE,11.5,-,N/A,,Mostly Cloudy,150,2013-03-09 10:53:00
5:53 AM,45.0,39.0,80,29.90,9.0,SSE,10.4,26.5,N/A,,Clear,160,2013-03-09 11:53:00
6:53 AM,45.0,39.0,80,29.88,10.0,SSE,8.1,18.4,N/A,,Mostly Cloudy,160,2013-03-09 12:53:00
7:53 AM,46.0,39.0,76,29.86,9.0,SSE,11.5,18.4,N/A,,Overcast,150,2013-03-09 13:53:00
8:53 AM,48.9,39.0,69,29.83,10.0,SSE,15.0,21.9,N/A,,Overcast,160,2013-03-09 14:53:00
9:53 AM,50.0,39.0,66,29.82,10.0,South,9.2,21.9,N/A,,Overcast,180,2013-03-09 15:53:00
10:53 AM,54.0,41.0,62,29.81,10.0,South,11.5,20.7,N/A,,Mostly Cloudy,190,2013-03-09 16:53:00
11:53 AM,57.0,43.0,59,29.78,10.0,South,16.1,23.0,N/A,,Mostly Cloudy,180,2013-03-09 17:53:00
12:53 PM,57.9,44.1,60,29.74,10.0,South,15.0,20.7,N/A,,Overcast,190,2013-03-09 18:53:00
1:53 PM,59.0,46.0,62,29.71,10.0,South,10.4,-,N/A,,Overcast,190,2013-03-09 19:53:00
2:53 PM,57.0,48.0,72,29.71,10.0,NW,5.8,-,N/A,,Overcast,320,2013-03-09 20:53:00
3:53 PM,53.1,50.0,89,29.71,2.5,NE,5.8,-,0.06,Rain,Rain,40,2013-03-09 21:53:00
4:14 PM,53.6,50.0,88,29.69,4.0,NE,3.5,-,0.02,,Overcast,50,2013-03-09 22:14:00
4:53 PM,52.0,50.0,93,29.68,3.0,East,6.9,-,0.03,Rain-Thunderstorm,Light Rain,100,2013-03-09 22:53:00
5:00 PM,51.8,50.0,94,29.67,2.0,ESE,8.1,-,0.00,Rain-Thunderstorm,Light Rain,110,2013-03-09 23:00:00
5:24 PM,51.8,50.0,94,29.68,1.8,East,6.9,-,0.01,,Overcast,100,2013-03-09 23:24:00
5:35 PM,51.8,50.0,94,29.68,1.5,East,5.8,-,0.01,Rain-Thunderstorm,Light Rain,100,2013-03-09 23:35:00
5:53 PM,51.1,50.0,96,29.70,1.0,Calm,Calm,-,0.16,Rain-Thunderstorm,Heavy Thunderstorms and Rain,0,2013-03-09 23:53:00
5:59 PM,51.8,50.0,94,29.69,0.8,North,5.8,-,0.04,Rain-Thunderstorm,Heavy Thunderstorms and Rain,360,2013-03-09 23:59:00
6:06 PM,51.8,50.0,94,29.69,1.0,North,6.9,-,0.05,Rain-Thunderstorm,Light Thunderstorms and Rain,10,2013-03-10 00:06:00
6:10 PM,51.8,50.0,94,29.69,0.8,NNE,6.9,-,0.05,Rain-Thunderstorm,Light Rain,30,2013-03-10 00:10:00
6:19 PM,51.8,48.2,88,29.68,1.0,NE,8.1,-,0.06,Rain-Thunderstorm,Light Rain,40,2013-03-10 00:19:00
6:24 PM,50.0,48.2,94,29.68,1.2,NE,9.2,-,0.09,Rain,Heavy Rain,50,2013-03-10 00:24:00
6:36 PM,50.0,48.2,94,29.68,1.2,NE,8.1,-,0.18,Rain-Thunderstorm,Heavy Thunderstorms and Rain,50,2013-03-10 00:36:00
6:43 PM,50.0,48.2,94,29.68,1.5,NE,8.1,-,0.22,Rain-Thunderstorm,Thunderstorms and Rain,50,2013-03-10 00:43:00
6:53 PM,48.9,46.9,93,29.69,1.5,ENE,8.1,-,0.29,Rain-Thunderstorm,Heavy Thunderstorms and Rain,70,2013-03-10 00:53:00
7:07 PM,48.2,46.4,93,29.67,1.8,East,9.2,-,0.04,Rain,Light Rain,80,2013-03-10 01:07:00
7:18 PM,48.2,46.4,93,29.67,1.5,ENE,8.1,-,0.04,,Overcast,70,2013-03-10 01:18:00
7:23 PM,48.2,46.4,93,29.67,1.8,ENE,8.1,-,0.04,Rain-Thunderstorm,Light Rain,70,2013-03-10 01:23:00
7:32 PM,48.2,48.2,100,29.68,0.8,NNE,3.5,-,0.21,Rain-Thunderstorm,Heavy Thunderstorms and Rain,20,2013-03-10 01:32:00
7:46 PM,48.2,46.4,93,29.67,1.0,NE,5.8,-,0.29,Rain-Thunderstorm,Thunderstorms and Rain,50,2013-03-10 01:46:00
7:53 PM,48.9,48.0,97,29.70,1.0,Calm,Calm,-,0.34,Rain-Thunderstorm,Thunderstorms and Rain,0,2013-03-10 01:53:00
8:06 PM,48.2,46.4,93,29.68,1.8,Calm,Calm,-,0.05,Rain,Rain,0,2013-03-10 02:06:00
8:13 PM,48.2,46.4,93,29.68,1.5,East,9.2,-,0.07,Rain,Rain,90,2013-03-10 02:13:00
8:32 PM,48.2,46.4,93,29.67,2.0,ESE,6.9,-,0.11,Rain,Light Rain,110,2013-03-10 02:32:00
8:53 PM,48.9,48.0,97,29.68,2.5,ESE,9.2,-,0.11,Rain,Light Rain,110,2013-03-10 02:53:00
9:00 PM,48.2,48.2,100,29.67,3.0,ESE,8.1,-,0.00,Rain,Light Rain,110,2013-03-10 03:00:00
9:12 PM,48.2,48.2,100,29.67,2.5,East,9.2,-,0.00,,Overcast,100,2013-03-10 03:12:00
9:45 PM,50.0,48.2,94,29.67,2.5,ESE,6.9,-,0.03,Rain,Light Rain,110,2013-03-10 03:45:00
9:53 PM,50.0,48.9,96,29.67,2.0,ESE,8.1,-,0.04,Rain,Light Rain,120,2013-03-10 03:53:00
10:09 PM,51.8,50.0,94,29.65,1.0,SE,9.2,-,0.00,,Overcast,130,2013-03-10 04:09:00
10:17 PM,51.8,51.8,100,29.65,1.2,SE,8.1,-,0.00,,Overcast,140,2013-03-10 04:17:00
10:24 PM,53.6,51.8,94,29.64,2.0,SE,10.4,-,0.01,Rain,Light Rain,140,2013-03-10 04:24:00
10:34 PM,53.6,53.6,100,29.62,4.0,SE,12.7,21.9,0.01,Rain,Light Rain,140,2013-03-10 04:34:00
10:53 PM,55.0,54.0,96,29.62,5.0,SSE,12.7,20.7,0.01,Rain,Light Rain,150,2013-03-10 04:53:00
11:53 PM,55.9,54.0,93,29.60,9.0,SSE,11.5,18.4,0.01,,Mostly Cloudy,160,2013-03-10 05:53:00